Location: Équennes
(49.7375°N, 1.9622°E)
Time: 00:22:57
(UTC+00:00)

YAOGAN 1 - Pass Details

Date: 28 January 2023
Orbit: 616 x 618 km, 97.8° (Epoch: 30 March)

Event Time Altitude Azimuth Distance (km) Brightness Sun altitude
Rises 18:03:20 0° 149° (SSE) 2,881 5.8 -13.5°
Reaches altitude 10° 18:05:34 10° 144° (SE) 1,980 4.9 -13.8°
Maximum altitude 18:09:43 49° 70° (ENE) 804 2.7 -14.5°
Drops below altitude 10° 18:13:54 10° 356° (N) 1,997 5.1 -15.1°
Sets 18:16:09 0° 351° (N) 2,909 6.0 -15.5°
